LC10 LBSF-LDDU

Flight info

Callsign LC10
Flight time 0h 52m
Altitude 320
Route NAPE3S OLOTA RETRA BIGLO MOKU4Z
Aircraft B38M/M-V/N

Departure

Time 2026-05-07 06:45
Airport Sofia Airport (LBSF)

Arrival

Time 2026-05-07 07:37
Airport Dubrovnik Ruđer Bošković Airport (LDDU)
Time Latitude Longitude Altitude Speed Heading
2026-05-07 06:36 42.69211 23.39693 1756 ft 0 kts 197°
2026-05-07 06:41 42.69204 23.39690 1756 ft 5 kts 197°
2026-05-07 06:41 42.69142 23.39641 1758 ft 7 kts 265°
2026-05-07 06:42 42.69174 23.39594 1758 ft 7 kts 320°
2026-05-07 06:42 42.69216 23.39552 1757 ft 7 kts 341°
2026-05-07 06:42 42.69273 23.39551 1756 ft 9 kts
2026-05-07 06:42 42.69346 23.39558 1753 ft 11 kts
2026-05-07 06:43 42.69435 23.39569 1751 ft 13 kts
2026-05-07 06:43 42.69538 23.39583 1749 ft 15 kts
2026-05-07 06:43 42.69643 23.39594 1748 ft 13 kts
2026-05-07 06:43 42.69741 23.39603 1746 ft 15 kts
2026-05-07 06:44 42.69762 23.39672 1745 ft 5 kts 102°
2026-05-07 06:44 42.69755 23.39789 1746 ft 34 kts 90°
2026-05-07 06:44 42.69722 23.40482 1750 ft 109 kts 95°
2026-05-07 06:44 42.69640 23.41810 1767 ft 168 kts 95°
2026-05-07 06:45 42.69503 23.43455 2268 ft 181 kts 98°
2026-05-07 06:45 42.69380 23.45197 2953 ft 188 kts 91°
2026-05-07 06:45 42.69342 23.47033 3401 ft 207 kts 91°
2026-05-07 06:45 42.69262 23.49128 3661 ft 234 kts 93°
2026-05-07 06:46 42.69144 23.51358 4271 ft 243 kts 94°
2026-05-07 06:46 42.68615 23.53552 4937 ft 249 kts 126°
2026-05-07 06:46 42.67241 23.54895 5637 ft 253 kts 161°
2026-05-07 06:46 42.65487 23.55082 6326 ft 258 kts 187°
2026-05-07 06:47 42.63728 23.54618 7045 ft 262 kts 186°
2026-05-07 06:47 42.61889 23.54389 7617 ft 276 kts 182°
2026-05-07 06:47 42.59943 23.54205 8265 ft 285 kts 182°
2026-05-07 06:47 42.57975 23.53977 9036 ft 290 kts 183°
2026-05-07 06:48 42.55955 23.53696 9819 ft 293 kts 187°
2026-05-07 06:48 42.53988 23.52977 10399 ft 305 kts 200°
2026-05-07 06:48 42.52073 23.51481 10508 ft 334 kts 218°
2026-05-07 06:48 42.50475 23.49104 11001 ft 346 kts 233°
2026-05-07 06:49 42.49154 23.46365 11638 ft 353 kts 237°
2026-05-07 06:49 42.47902 23.43507 12331 ft 356 kts 238°
2026-05-07 06:49 42.46646 23.40614 13015 ft 359 kts 238°
2026-05-07 06:49 42.45373 23.37702 13688 ft 362 kts 237°
2026-05-07 06:50 42.44085 23.34771 14348 ft 365 kts 237°
2026-05-07 06:50 42.42772 23.31798 14995 ft 368 kts 237°
2026-05-07 06:50 42.41462 23.28835 15624 ft 370 kts 237°
2026-05-07 06:50 42.40152 23.25879 16233 ft 372 kts 237°
2026-05-07 06:51 42.38801 23.22835 16842 ft 375 kts 236°
2026-05-07 06:51 42.37470 23.19840 17425 ft 377 kts 236°
2026-05-07 06:51 42.36118 23.16800 18001 ft 379 kts 236°
2026-05-07 06:51 42.34764 23.13759 18563 ft 380 kts 236°
2026-05-07 06:52 42.33403 23.10706 19106 ft 382 kts 236°
2026-05-07 06:52 42.32034 23.07633 19640 ft 384 kts 236°
2026-05-07 06:52 42.30757 23.04427 20148 ft 388 kts 244°
2026-05-07 06:52 42.29901 23.00962 20702 ft 391 kts 253°
2026-05-07 06:53 42.29359 22.97382 21222 ft 394 kts 258°
2026-05-07 06:53 42.28988 22.93684 21730 ft 395 kts 261°
2026-05-07 06:53 42.28715 22.89992 22219 ft 397 kts 262°
2026-05-07 06:53 42.28493 22.86314 22694 ft 398 kts 263°
2026-05-07 06:54 42.28297 22.82593 23171 ft 399 kts 264°
2026-05-07 06:54 42.28123 22.78858 23600 ft 400 kts 265°
2026-05-07 06:54 42.27969 22.75071 24019 ft 402 kts 265°
2026-05-07 06:54 42.27835 22.71292 24426 ft 404 kts 265°
2026-05-07 06:55 42.27723 22.67559 24822 ft 405 kts 266°
2026-05-07 06:55 42.27626 22.63757 25229 ft 406 kts 266°
2026-05-07 06:55 42.27539 22.59937 25570 ft 408 kts 267°
2026-05-07 06:55 42.27461 22.56089 25964 ft 409 kts 267°
2026-05-07 06:56 42.27384 22.52248 26305 ft 411 kts 267°
2026-05-07 06:56 42.27304 22.48447 26652 ft 412 kts 267°
2026-05-07 06:56 42.27214 22.44587 27038 ft 413 kts 267°
2026-05-07 06:56 42.27105 22.40692 27303 ft 416 kts 267°
2026-05-07 06:57 42.26981 22.36773 27638 ft 417 kts 266°
2026-05-07 06:57 42.26832 22.32889 27960 ft 418 kts 265°
2026-05-07 06:57 42.26659 22.28960 28277 ft 419 kts 265°
2026-05-07 06:57 42.26465 22.25057 28530 ft 422 kts 265°
2026-05-07 06:58 42.26242 22.21109 28836 ft 423 kts 264°
2026-05-07 06:58 42.25996 22.17150 29195 ft 422 kts 264°
2026-05-07 06:58 42.25735 22.13225 29451 ft 424 kts 264°
2026-05-07 06:58 42.25478 22.09227 29677 ft 427 kts 265°
2026-05-07 06:59 42.25247 22.05221 29952 ft 428 kts 265°
2026-05-07 06:59 42.25039 22.01280 30321 ft 427 kts 265°
2026-05-07 06:59 42.24839 21.97298 30673 ft 426 kts 266°
2026-05-07 06:59 42.24644 21.93310 30967 ft 426 kts 266°
2026-05-07 07:00 42.24456 21.89319 31308 ft 425 kts 266°
2026-05-07 07:00 42.24272 21.85414 31626 ft 424 kts 266°
2026-05-07 07:00 42.24088 21.81458 31973 ft 422 kts 267°
2026-05-07 07:00 42.23903 21.77507 32134 ft 424 kts 267°
2026-05-07 07:01 42.23529 21.69525 32125 ft 427 kts 267°
2026-05-07 07:01 42.23196 21.61600 32129 ft 425 kts 269°
2026-05-07 07:02 42.23157 21.53626 32129 ft 426 kts 271°
2026-05-07 07:02 42.23183 21.45693 32127 ft 427 kts 271°
2026-05-07 07:03 42.23233 21.37720 32128 ft 424 kts 271°
2026-05-07 07:03 42.23283 21.29768 32133 ft 424 kts 270°
2026-05-07 07:04 42.23335 21.21868 32141 ft 426 kts 271°
2026-05-07 07:04 42.23386 21.13907 32150 ft 424 kts 270°
2026-05-07 07:05 42.23393 21.05925 32157 ft 428 kts 272°
2026-05-07 07:05 42.23386 20.97907 32154 ft 432 kts 274°
2026-05-07 07:06 42.23452 20.89732 32155 ft 439 kts 275°
2026-05-07 07:06 42.23519 20.81529 32155 ft 442 kts 275°
2026-05-07 07:07 42.23564 20.73236 32152 ft 442 kts 275°
2026-05-07 07:07 42.23586 20.64947 32155 ft 443 kts 275°
2026-05-07 07:08 42.23599 20.56747 32155 ft 439 kts 275°
2026-05-07 07:08 42.23607 20.48512 32157 ft 439 kts 275°
2026-05-07 07:09 42.23609 20.40322 32155 ft 439 kts 275°
2026-05-07 07:09 42.23605 20.32124 32156 ft 441 kts 275°
2026-05-07 07:10 42.23605 20.23827 32156 ft 442 kts 275°
2026-05-07 07:10 42.23584 20.15626 32155 ft 440 kts 274°
2026-05-07 07:11 42.23570 20.07360 32155 ft 442 kts 274°
2026-05-07 07:11 42.23544 19.99071 32155 ft 440 kts 275°
2026-05-07 07:12 42.23510 19.90903 32156 ft 440 kts 274°
2026-05-07 07:12 42.23466 19.82637 32156 ft 441 kts 275°
2026-05-07 07:13 42.23421 19.74357 32155 ft 441 kts 274°
2026-05-07 07:13 42.23373 19.66169 32154 ft 440 kts 275°
2026-05-07 07:14 42.23323 19.57913 32155 ft 441 kts 274°
2026-05-07 07:14 42.23262 19.49616 32154 ft 442 kts 275°
2026-05-07 07:15 42.23195 19.41413 32155 ft 440 kts 275°
2026-05-07 07:15 42.23603 19.33227 32155 ft 436 kts 281°
2026-05-07 07:16 42.24491 19.25217 32155 ft 435 kts 284°
2026-05-07 07:16 42.25574 19.17240 32156 ft 431 kts 286°
2026-05-07 07:17 42.26732 19.09350 32155 ft 426 kts 288°
2026-05-07 07:17 42.27918 19.01537 32154 ft 422 kts 290°
2026-05-07 07:18 42.29100 18.93833 32157 ft 422 kts 291°
2026-05-07 07:18 42.30299 18.86061 32154 ft 421 kts 291°
2026-05-07 07:19 42.31492 18.78349 31930 ft 422 kts 293°
2026-05-07 07:19 42.32419 18.74617 30874 ft 420 kts 302°
2026-05-07 07:19 42.33717 18.71122 29808 ft 418 kts 307°
2026-05-07 07:20 42.35176 18.67788 28747 ft 419 kts 309°
2026-05-07 07:20 42.36738 18.64480 27669 ft 421 kts 310°
2026-05-07 07:20 42.38353 18.61197 26590 ft 422 kts 310°
2026-05-07 07:20 42.39981 18.57964 25522 ft 423 kts 310°
2026-05-07 07:21 42.41630 18.54731 24418 ft 415 kts 310°
2026-05-07 07:21 42.43277 18.51525 23330 ft 407 kts 310°
2026-05-07 07:21 42.44871 18.48439 22257 ft 398 kts 310°
2026-05-07 07:21 42.46417 18.45455 21192 ft 389 kts 310°
2026-05-07 07:22 42.47946 18.42510 20115 ft 381 kts 310°
2026-05-07 07:22 42.49450 18.39625 19040 ft 374 kts 310°
2026-05-07 07:22 42.50932 18.36785 17965 ft 369 kts 310°
2026-05-07 07:22 42.52383 18.34009 16902 ft 366 kts 309°
2026-05-07 07:23 42.53777 18.31171 15821 ft 365 kts 301°
2026-05-07 07:23 42.54727 18.28014 14748 ft 366 kts 288°
2026-05-07 07:23 42.55131 18.24645 13675 ft 365 kts 275°
2026-05-07 07:23 42.54976 18.21227 12596 ft 364 kts 262°
2026-05-07 07:24 42.54287 18.17977 11526 ft 362 kts 250°
2026-05-07 07:24 42.53337 18.14887 10465 ft 359 kts 248°
2026-05-07 07:24 42.52438 18.11785 9381 ft 355 kts 255°
2026-05-07 07:24 42.52026 18.08538 8301 ft 349 kts 269°
2026-05-07 07:25 42.52826 18.02353 6960 ft 315 kts 293°
2026-05-07 07:25 42.53667 17.99744 6702 ft 293 kts 299°
2026-05-07 07:25 42.54780 17.97563 6445 ft 272 kts 316°
2026-05-07 07:26 42.55908 17.95582 6194 ft 261 kts 303°
2026-05-07 07:26 42.56752 17.93461 5942 ft 250 kts 300°
2026-05-07 07:26 42.57516 17.91394 5690 ft 241 kts 299°
2026-05-07 07:26 42.58248 17.89395 5437 ft 233 kts 299°
2026-05-07 07:27 42.58958 17.87454 5185 ft 226 kts 299°
2026-05-07 07:27 42.59639 17.85588 4936 ft 220 kts 299°
2026-05-07 07:27 42.60308 17.83756 4687 ft 215 kts 299°
2026-05-07 07:27 42.61111 17.82114 4450 ft 201 kts 325°
2026-05-07 07:28 42.62332 17.81436 4246 ft 188 kts
2026-05-07 07:28 42.63581 17.81771 3999 ft 183 kts 24°
2026-05-07 07:28 42.64742 17.82429 3744 ft 183 kts 28°
2026-05-07 07:28 42.65929 17.83167 3492 ft 188 kts 30°
2026-05-07 07:29 42.67015 17.84132 3216 ft 185 kts 52°
2026-05-07 07:29 42.67624 17.85620 2976 ft 181 kts 70°
2026-05-07 07:29 42.68028 17.87238 2729 ft 181 kts 74°
2026-05-07 07:29 42.68398 17.88859 2587 ft 177 kts 74°
2026-05-07 07:30 42.68765 17.90474 2612 ft 180 kts 74°
2026-05-07 07:30 42.69035 17.92118 2591 ft 180 kts 86°
2026-05-07 07:30 42.69069 17.93815 2603 ft 179 kts 90°
2026-05-07 07:30 42.69034 17.95514 2596 ft 180 kts 97°
2026-05-07 07:31 42.68628 17.97106 2603 ft 180 kts 115°
2026-05-07 07:31 42.67988 17.98599 2600 ft 182 kts 123°
2026-05-07 07:31 42.67198 17.99939 2596 ft 178 kts 126°
2026-05-07 07:31 42.66477 18.01224 2586 ft 163 kts 122°
2026-05-07 07:32 42.65861 18.02491 2606 ft 162 kts 119°
2026-05-07 07:32 42.65282 18.03801 2619 ft 163 kts 117°
2026-05-07 07:32 42.64724 18.05137 2593 ft 162 kts 117°
2026-05-07 07:32 42.64173 18.06498 2601 ft 162 kts 116°
2026-05-07 07:33 42.63641 18.07833 2599 ft 162 kts 116°
2026-05-07 07:33 42.63128 18.09123 2598 ft 144 kts 116°
2026-05-07 07:33 42.62671 18.10279 2573 ft 137 kts 115°
2026-05-07 07:33 42.62226 18.11408 2625 ft 136 kts 115°
2026-05-07 07:34 42.61772 18.12567 2508 ft 139 kts 115°
2026-05-07 07:34 42.61326 18.13699 2335 ft 134 kts 115°
2026-05-07 07:34 42.60882 18.14824 2169 ft 135 kts 116°
2026-05-07 07:34 42.60446 18.15928 1999 ft 132 kts 116°
2026-05-07 07:35 42.60008 18.17039 1813 ft 133 kts 116°
2026-05-07 07:35 42.59569 18.18152 1638 ft 136 kts 116°
2026-05-07 07:35 42.59122 18.19284 1444 ft 137 kts 116°
2026-05-07 07:35 42.58669 18.20427 1256 ft 137 kts 116°
2026-05-07 07:36 42.58217 18.21570 1071 ft 136 kts 117°
2026-05-07 07:36 42.57776 18.22683 888 ft 136 kts 117°
2026-05-07 07:36 42.57328 18.23814 704 ft 136 kts 117°
2026-05-07 07:36 42.56896 18.24904 516 ft 128 kts 117°
2026-05-07 07:37 42.56496 18.25926 525 ft 102 kts 116°
2026-05-07 07:37 42.56269 18.26498 523 ft 46 kts 120°
2026-05-07 07:37 42.56122 18.26878 516 ft 42 kts 117°
2026-05-07 07:37 42.55980 18.27218 506 ft 37 kts 117°
2026-05-07 07:38 42.55853 18.27330 504 ft 18 kts 178°
2026-05-07 07:38 42.55772 18.27298 505 ft 9 kts 238°
2026-05-07 07:38 42.55779 18.27228 507 ft 8 kts 300°
2026-05-07 07:38 42.55817 18.27130 509 ft 15 kts 296°
2026-05-07 07:39 42.55877 18.26978 511 ft 18 kts 298°
2026-05-07 07:39 42.55938 18.26825 513 ft 18 kts 298°
2026-05-07 07:39 42.55999 18.26669 515 ft 18 kts 298°
2026-05-07 07:39 42.56039 18.26543 516 ft 8 kts 248°
2026-05-07 07:40 42.56012 18.26519 515 ft 2 kts 207°
2026-05-07 07:40 42.55996 18.26508 514 ft 0 kts 208°